Location: Étouvelles
(49.5207°N, 3.5808°E)
Time: 00:59:47
(UTC+00:00)

Cosmos 540 Rocket - Pass Details

Date: 27 September 2023
Orbit: 737 x 752 km, 74.1° (Epoch: 03 December)

Event Time Altitude Azimuth Distance (km) Brightness Sun altitude
Rises 19:40:45 0° 344° (NNW) 3,184 7.3 -21.0°
Reaches altitude 10° 19:44:03 10° 6° (N) 2,258 6.1 -21.5°
Maximum altitude 19:47:09 16° 44° (NE) 1,878 5.3 -21.9°
Enters shadow 19:47:12 16° 45° (NE) 1,878 5.3 -21.9°
